Weather History for KIMT - October, 2012

Change the Weather History Date:

Monday, October 22, 2012

  Actual Average Record
Temperature  
Mean Temperature 53 °F -  
Max Temperature 64 °F 52 °F 83 °F (1947)
Min Temperature 42 °F 32 °F 17 °F (1944)
Degree Days  
Heating Degree Days 12    
Growing Degree Days 3 (Base 50)    
Moisture  
Dew Point 44 °F    
Average Humidity 75    
Maximum Humidity 96    
Minimum Humidity 50    
Precipitation  
Precipitation 0.00 in - - ()
Sea Level Pressure  
Sea Level Pressure 30.01 in    
Wind  
Wind Speed 4 mph (ENE)    
Max Wind Speed 9 mph    
Max Gust Speed -    
Visibility 9 miles    
Events      
Averages and records for this station are not official NWS values.
T = Trace of Precipitation, MM = Missing Value Source: NWS Daily Summary

Daily Weather History Graph

Daily Weather History Graph

Search for Another Location

Airport or City:

Trip Planner

Search our weather history database for the weather conditions in past years. The results will help you decide how hot, cold, wet, or windy it might be!

Date:

Astronomy

Oct. 22, 2012 Rise Set
Actual Time 7:19 AM CDT 5:53 PM CDT
Civil Twilight 6:48 AM CDT 6:24 PM CDT
Nautical Twilight 6:14 AM CDT 6:58 PM CDT
Astronomical Twilight 5:39 AM CDT 7:33 PM CDT
Moon 2:20 PM CDT (10/22) No Moon Set
Length of Visible Light 11h 35m
Length of Day
10h 34m
First Quarter, 56% of the Moon is Illuminated
Oct 22
First Quarter
Oct 29
Full
Nov 6
Last Quarter
Nov 13
New
Nov 20
First Quarter

Hourly Weather History & Observations

Time (CDT) Temp. Windchill Dew Point Humidity Pressure Visibility Wind Dir Wind Speed Gust Speed Precip Events Conditions
12:54 AM 50.0 °F - 44.1 °F 80% 29.99 in 10.0 mi South 3.5 mph - N/A   Overcast
1:54 AM 48.9 °F - 44.1 °F 83% 29.98 in 10.0 mi SE 3.5 mph - N/A   Overcast
2:54 AM 48.0 °F - 44.1 °F 86% 29.97 in 10.0 mi Calm Calm - N/A   Clear
3:54 AM 44.1 °F - 42.1 °F 93% 29.98 in 7.0 mi Calm Calm - N/A   Clear
4:54 AM 44.1 °F - 42.1 °F 93% 29.98 in 8.0 mi Calm Calm - N/A   Clear
5:54 AM 44.1 °F - 42.1 °F 93% 30.00 in 6.0 mi Calm Calm - N/A   Clear
6:54 AM 42.1 °F 40.2 °F 41.0 °F 96% 30.00 in 4.0 mi North 3.5 mph - N/A   Clear
7:54 AM 42.1 °F - 41.0 °F 96% 30.02 in 6.0 mi Calm Calm - N/A   Clear
8:54 AM 45.0 °F - 43.0 °F 93% 30.03 in 5.0 mi Calm Calm - N/A   Clear
9:54 AM 50.0 °F - 45.0 °F 83% 30.04 in 10.0 mi Calm Calm - N/A   Clear
10:54 AM 57.9 °F - 45.0 °F 62% 30.04 in 10.0 mi ENE 5.8 mph - N/A   Clear
11:54 AM 61.0 °F - 45.0 °F 56% 30.01 in 10.0 mi East 6.9 mph - N/A   Clear
12:54 PM 64.0 °F - 45.0 °F 50% 30.00 in 10.0 mi ENE 8.1 mph - N/A   Clear
1:54 PM 64.0 °F - 45.0 °F 50% 30.01 in 10.0 mi East 6.9 mph - N/A   Mostly Cloudy
2:54 PM 63.0 °F - 45.0 °F 52% 29.99 in 10.0 mi East 6.9 mph - N/A   Overcast
3:54 PM 63.0 °F - 44.1 °F 50% 29.99 in 10.0 mi NE 9.2 mph - N/A   Mostly Cloudy
4:54 PM 60.1 °F - 44.1 °F 55% 30.01 in 10.0 mi ENE 6.9 mph - N/A   Overcast
5:54 PM 57.0 °F - 44.1 °F 62% 30.01 in 10.0 mi Variable 4.6 mph - N/A   Mostly Cloudy
6:54 PM 55.9 °F - 45.0 °F 67% 30.03 in 10.0 mi NE 6.9 mph - N/A   Overcast
7:54 PM 53.1 °F - 45.0 °F 74% 30.03 in 10.0 mi NNE 8.1 mph - N/A   Overcast
8:54 PM 51.1 °F - 45.0 °F 80% 30.04 in 10.0 mi North 8.1 mph - N/A   Overcast
9:54 PM 50.0 °F - 45.0 °F 83% 30.03 in 10.0 mi NNE 6.9 mph - N/A   Overcast
10:54 PM 50.0 °F - 44.1 °F 80% 30.01 in 10.0 mi NNE 6.9 mph - N/A   Overcast